Oxford, AL

6:16 PM CST on February 06, 2016 (GMT -0600)
Anniston Metro

Weather History for KANB - September, 2012

Change the Weather History Date:

Saturday, September 1, 2012

  Actual Average Record
Temperature  
Mean Temperature 80 °F 78 °F  
Max Temperature 90 °F 88 °F 101 °F (1957)
Min Temperature 70 °F 68 °F 54 °F (1946)
Cooling Degree Days 14    
Growing Degree Days 30 (Base 50)    
Moisture  
Dew Point 72 °F    
Average Humidity 80    
Maximum Humidity 100    
Minimum Humidity 59    
Precipitation  
Precipitation 0.00 in 0.10 in 3.08 in (1950)
Month to date precipitation 0.00 0.10  
Year to date precipitation 32.52 35.02  
Sea Level Pressure  
Sea Level Pressure 30.13 in    
Wind  
Wind Speed 3 mph (WSW)    
Max Wind Speed 12 mph    
Max Gust Speed 16 mph    
Visibility 10 miles    
Events      
T = Trace of Precipitation, MM = Missing Value Source: NWS Daily Summary

Daily Weather History Graph

Daily Weather History Graph

Search for Another Location

Airport or City:

Trip Planner

Search our weather history database for the weather conditions in past years. The results will help you decide how hot, cold, wet, or windy it might be!

Date:

Astronomy

Sep. 01, 2012 Rise Set
Actual Time 6:17 AM CDT 7:08 PM CDT
Civil Twilight 5:52 AM CDT 7:33 PM CDT
Nautical Twilight 5:22 AM CDT 8:03 PM CDT
Astronomical Twilight 4:51 AM CDT 8:34 PM CDT
Moon 7:32 PM CDT (9/1) 7:18 AM CDT (9/1)
Length of Visible Light 13h 41m
Length of Day
12h 50m
Full, 99% of the Moon is Illuminated
Sep 1
Full
Sep 8
Last Quarter
Sep 15
New
Sep 22
First Quarter
Sep 29
Full

Hourly Weather History & Observations

Time (CDT) Temp. Heat Index Dew Point Humidity Pressure Visibility Wind Dir Wind Speed Gust Speed Precip Events Conditions
12:53 AM 73.9 °F - 72.0 °F 93% 30.14 in 10.0 mi Calm Calm - N/A   Clear
1:53 AM 73.0 °F - 71.1 °F 93% 30.14 in 10.0 mi Calm Calm - N/A   Partly Cloudy
2:53 AM 72.0 °F - 71.1 °F 97% 30.13 in 10.0 mi Calm Calm - N/A   Clear
3:53 AM 71.1 °F - 70.0 °F 96% 30.13 in 10.0 mi Calm Calm - 0.01 in   Clear
4:53 AM 71.1 °F - 70.0 °F 96% 30.14 in 10.0 mi Calm Calm - N/A   Clear
5:53 AM 71.1 °F - 70.0 °F 96% 30.15 in 9.0 mi Calm Calm - N/A   Scattered Clouds
6:01 AM 71.6 °F - 69.8 °F 94% 30.18 in 9.0 mi Calm Calm - N/A   Mostly Cloudy
6:11 AM 71.6 °F - 69.8 °F 94% 30.18 in 9.0 mi Calm Calm - N/A   Scattered Clouds
6:32 AM 71.6 °F - 69.8 °F 94% 30.19 in 8.0 mi Calm Calm - N/A   Mostly Cloudy
6:53 AM 71.6 °F - 71.6 °F 100% 30.19 in 10.0 mi Calm Calm - N/A   Overcast
7:53 AM 75.0 °F - 72.0 °F 90% 30.18 in 10.0 mi Calm Calm - N/A   Overcast
8:35 AM 75.2 °F - 73.4 °F 94% 30.21 in 9.0 mi WSW 4.6 mph - N/A   Overcast
8:53 AM 77.0 °F - 73.0 °F 88% 30.19 in 8.0 mi WSW 5.8 mph - N/A   Mostly Cloudy
9:53 AM 80.1 °F 84.2 °F 73.0 °F 79% 30.19 in 10.0 mi Variable 5.8 mph - N/A   Scattered Clouds
10:53 AM 82.9 °F 88.8 °F 73.0 °F 72% 30.18 in 10.0 mi SW 8.1 mph - N/A   Scattered Clouds
11:53 AM 86.0 °F 93.0 °F 73.0 °F 65% 30.16 in 10.0 mi WSW 6.9 mph - N/A   Partly Cloudy
12:53 PM 88.0 °F 93.8 °F 71.1 °F 57% 30.14 in 10.0 mi WSW 9.2 mph - N/A   Clear
1:53 PM 86.0 °F 92.2 °F 72.0 °F 63% 30.11 in 10.0 mi WSW 8.1 mph - N/A   Mostly Cloudy
2:53 PM 87.1 °F 92.8 °F 71.1 °F 59% 30.08 in 10.0 mi West 8.1 mph - N/A   Partly Cloudy
4:53 PM 87.1 °F 92.8 °F 71.1 °F 59% 30.05 in 10.0 mi SW 4.6 mph - N/A   Mostly Cloudy
5:53 PM 84.9 °F 90.7 °F 72.0 °F 65% 30.05 in 10.0 mi WNW 5.8 mph - N/A   Scattered Clouds
6:53 PM 81.0 °F 85.8 °F 73.0 °F 77% 30.06 in 10.0 mi SSW 4.6 mph - N/A   Clear
7:53 PM 78.1 °F - 73.0 °F 84% 30.06 in 10.0 mi Calm Calm - N/A   Clear
8:53 PM 75.9 °F - 73.0 °F 91% 30.08 in 10.0 mi Calm Calm - N/A   Clear
9:53 PM 75.9 °F - 73.0 °F 91% 30.08 in 10.0 mi Calm Calm - N/A   Clear
10:53 PM 73.9 °F - 72.0 °F 93% 30.08 in 10.0 mi Calm Calm - N/A   Clear
11:53 PM 75.0 °F - 73.0 °F 94% 30.06 in 10.0 mi Calm Calm - N/A   Clear